Location: Baia Mare
(47.6567°N, 23.5850°E)
Time: 18:54:15
(UTC+03:00)

ISS - Pass Details

Date: 13 May 2018
Orbit: 402 x 407 km, 51.6° (Epoch: 23 May)

Event Time Altitude Azimuth Distance (km) Brightness Sun altitude
Exits shadow 02:23:02 22° 82° (E) 932 -1.8 -22.6°
Drops below altitude 10° 02:24:24 10° 73° (ENE) 1,458 -0.6 -22.6°
Sets 02:26:31 0° 67° (ENE) 2,320 0.6 -22.5°
